SNJ121 RJGG-ROAH

Flight info

Callsign SNJ121
Flight time N/A
Altitude 32000
Route KEC Y12 LAXEL Y52 TONAR Y525 IHEYA
Aircraft B738/M-SDE2E3FGHIRWXY/LB1

Departure

Time N/A
Airport Chubu Centrair International Airport (RJGG)

Arrival

Time 2026-04-26 15:43
Airport Naha International Airport (ROAH)
Time Latitude Longitude Altitude Speed Heading
2026-04-26 15:19 27.37572 128.59026 37861 ft 400 kts 242°
2026-04-26 15:19 27.36145 128.56295 37274 ft 407 kts 243°
2026-04-26 15:19 27.34711 128.53563 36671 ft 406 kts 243°
2026-04-26 15:20 27.33292 128.50866 36071 ft 406 kts 243°
2026-04-26 15:20 27.31854 128.48136 35405 ft 407 kts 243°
2026-04-26 15:20 27.30405 128.45385 34731 ft 410 kts 244°
2026-04-26 15:20 27.28949 128.42626 34143 ft 410 kts 244°
2026-04-26 15:21 27.27483 128.39847 33347 ft 414 kts 244°
2026-04-26 15:21 27.26011 128.37057 32610 ft 416 kts 244°
2026-04-26 15:21 27.24531 128.34256 31821 ft 418 kts 243°
2026-04-26 15:21 27.23040 128.31436 31001 ft 421 kts 243°
2026-04-26 15:22 27.21534 128.28590 30296 ft 422 kts 243°
2026-04-26 15:22 27.20054 128.25796 29613 ft 421 kts 243°
2026-04-26 15:22 27.18561 128.22983 29001 ft 416 kts 243°
2026-04-26 15:22 27.17086 128.20201 28390 ft 412 kts 243°
2026-04-26 15:23 27.15623 128.17442 27795 ft 409 kts 243°
2026-04-26 15:23 27.14178 128.14718 27219 ft 405 kts 243°
2026-04-26 15:23 27.12740 128.12011 26654 ft 402 kts 243°
2026-04-26 15:23 27.11310 128.09324 26057 ft 399 kts 243°
2026-04-26 15:24 27.09880 128.06654 25471 ft 397 kts 243°
2026-04-26 15:24 27.08473 128.04034 24903 ft 395 kts 243°
2026-04-26 15:24 27.07056 128.01392 24331 ft 394 kts 243°
2026-04-26 15:24 27.05648 127.98769 23764 ft 392 kts 242°
2026-04-26 15:25 27.04241 127.96149 23093 ft 391 kts 242°
2026-04-26 15:25 27.03220 127.94433 22675 ft 393 kts 234°
2026-04-26 15:25 27.00390 127.91856 21902 ft 402 kts 213°
2026-04-26 15:25 26.97766 127.90685 21170 ft 413 kts 199°
2026-04-26 15:26 26.94884 127.90341 20608 ft 415 kts 185°
2026-04-26 15:26 26.92033 127.90395 20059 ft 405 kts 183°
2026-04-26 15:26 26.89256 127.90520 19548 ft 394 kts 183°
2026-04-26 15:26 26.86559 127.90653 19035 ft 384 kts 183°
2026-04-26 15:27 26.83917 127.90772 18535 ft 375 kts 183°
2026-04-26 15:27 26.81368 127.90871 18008 ft 367 kts 184°
2026-04-26 15:27 26.78836 127.90959 17506 ft 359 kts 184°
2026-04-26 15:27 26.76371 127.91037 17027 ft 351 kts 184°
2026-04-26 15:28 26.73956 127.91110 16561 ft 343 kts 184°
2026-04-26 15:28 26.71594 127.91179 16106 ft 336 kts 184°
2026-04-26 15:28 26.69275 127.91246 15668 ft 330 kts 184°
2026-04-26 15:28 26.66989 127.91311 15205 ft 326 kts 184°
2026-04-26 15:29 26.64736 127.91375 14775 ft 321 kts 184°
2026-04-26 15:29 26.62512 127.91439 14346 ft 317 kts 183°
2026-04-26 15:29 26.58149 127.91625 13457 ft 310 kts 179°
2026-04-26 15:30 26.53947 127.92105 12616 ft 301 kts 178°
2026-04-26 15:30 26.51879 127.92354 12229 ft 296 kts 178°
2026-04-26 15:30 26.49840 127.92592 11824 ft 292 kts 180°
2026-04-26 15:31 26.47873 127.92388 11558 ft 277 kts 194°
2026-04-26 15:31 26.44020 127.92028 11341 ft 279 kts 184°
2026-04-26 15:31 26.42076 127.92041 11207 ft 279 kts 183°
2026-04-26 15:32 26.38890 127.91905 10870 ft 268 kts 201°
2026-04-26 15:32 26.36629 127.90836 10139 ft 262 kts 208°
2026-04-26 15:32 26.34985 127.89980 9406 ft 265 kts 208°
2026-04-26 15:33 26.33320 127.89110 8751 ft 263 kts 208°
2026-04-26 15:33 26.31675 127.88254 8142 ft 260 kts 208°
2026-04-26 15:33 26.30044 127.87412 7541 ft 256 kts 207°
2026-04-26 15:33 26.28433 127.86583 6939 ft 254 kts 207°
2026-04-26 15:34 26.26834 127.85762 6337 ft 251 kts 207°
2026-04-26 15:34 26.25250 127.84951 5683 ft 250 kts 207°
2026-04-26 15:34 26.23663 127.84138 5007 ft 251 kts 207°
2026-04-26 15:34 26.22076 127.83327 4351 ft 251 kts 207°
2026-04-26 15:35 26.20487 127.82516 3712 ft 250 kts 206°
2026-04-26 15:35 26.18913 127.81713 3114 ft 250 kts 206°
2026-04-26 15:35 26.17346 127.80914 2543 ft 254 kts 206°
2026-04-26 15:35 26.15756 127.80101 2261 ft 247 kts 206°
2026-04-26 15:36 26.14199 127.79308 2022 ft 249 kts 206°
2026-04-26 15:36 26.12652 127.78532 1924 ft 241 kts 206°
2026-04-26 15:36 26.11194 127.77790 1938 ft 224 kts 206°
2026-04-26 15:36 26.09795 127.77074 1972 ft 218 kts 207°
2026-04-26 15:37 26.08440 127.76383 1973 ft 209 kts 207°
2026-04-26 15:37 26.07166 127.75736 1975 ft 193 kts 207°
2026-04-26 15:37 26.05984 127.75118 1976 ft 185 kts 214°
2026-04-26 15:37 26.05201 127.74088 1992 ft 170 kts 254°
2026-04-26 15:38 26.05059 127.72816 2022 ft 163 kts 272°
2026-04-26 15:38 26.05009 127.71579 2009 ft 161 kts 270°
2026-04-26 15:38 26.04956 127.70342 1994 ft 159 kts 271°
2026-04-26 15:38 26.04906 127.69111 2007 ft 158 kts 271°
2026-04-26 15:39 26.04858 127.67927 1991 ft 148 kts 270°
2026-04-26 15:39 26.04813 127.66805 1981 ft 144 kts 271°
2026-04-26 15:39 26.04901 127.65702 1980 ft 142 kts 296°
2026-04-26 15:39 26.05211 127.65074 2002 ft 141 kts 307°
2026-04-26 15:40 26.06328 127.64424 2005 ft 140 kts 343°
2026-04-26 15:40 26.07271 127.64104 2004 ft 142 kts 346°
2026-04-26 15:40 26.08244 127.63920 1883 ft 144 kts 350°
2026-04-26 15:40 26.09243 127.63786 1704 ft 144 kts 354°
2026-04-26 15:41 26.10236 127.63720 1504 ft 141 kts 355°
2026-04-26 15:41 26.11210 127.63671 1331 ft 140 kts 356°
2026-04-26 15:41 26.12185 127.63622 1148 ft 141 kts 356°
2026-04-26 15:41 26.13166 127.63581 953 ft 142 kts 356°
2026-04-26 15:42 26.14162 127.63537 805 ft 141 kts 357°
2026-04-26 15:42 26.15121 127.63486 551 ft 140 kts 356°
2026-04-26 15:42 26.16071 127.63439 387 ft 137 kts 359°
2026-04-26 15:42 26.17026 127.63393 253 ft 136 kts 357°
2026-04-26 15:43 26.17982 127.63354 56 ft 138 kts 352°
2026-04-26 15:43 26.18870 127.63303 14 ft 108 kts 358°
2026-04-26 15:43 26.19640 127.63298 17 ft 32 kts 14°
2026-04-26 15:44 26.19828 127.63391 17 ft 28 kts 28°
2026-04-26 15:44 26.20151 127.63438 16 ft 21 kts 358°
2026-04-26 15:44 26.20278 127.63445 17 ft 17 kts 29°
2026-04-26 15:45 26.20308 127.63682 16 ft 15 kts 88°
2026-04-26 15:45 26.20312 127.63798 16 ft 15 kts 88°
2026-04-26 15:46 26.20322 127.64039 16 ft 17 kts 87°
2026-04-26 15:46 26.20326 127.64165 16 ft 16 kts 88°
2026-04-26 15:46 26.20339 127.64284 18 ft 15 kts 62°
2026-04-26 15:46 26.20400 127.64315 16 ft 15 kts
2026-04-26 15:47 26.20534 127.64310 16 ft 14 kts 360°
2026-04-26 15:47 26.20617 127.64439 15 ft 0 kts 88°
2026-04-26 15:48 26.20617 127.64456 16 ft 5 kts 88°
2026-04-26 15:48 26.20619 127.64520 18 ft 12 kts 88°
2026-04-26 15:49 26.20624 127.64648 15 ft 20 kts 87°
2026-04-26 15:49 26.20570 127.64744 16 ft 16 kts 172°
2026-04-26 15:49 26.20460 127.64752 17 ft 16 kts 178°
2026-04-26 15:49 26.20366 127.64790 18 ft 15 kts 127°
2026-04-26 15:50 26.20332 127.64850 19 ft 8 kts 161°
2026-04-26 15:50 26.20286 127.64855 19 ft 0 kts 176°